datetime,min air temp
2006-06-29,53.78
2006-06-30,49.46
2006-07-01,49.82
2006-07-02,50.54
2006-07-03,49.64
2006-07-04,50.72
2006-07-05,47.48
2006-07-06,38.66
2006-07-07,35.6
2006-07-08,48.74
2006-07-09,53.42
2006-07-10,50.0
2006-07-11,50.18
2006-07-12,45.86
2006-07-13,44.24
2006-07-14,49.64
2006-07-15,50.54
2006-07-16,50.18
2006-07-17,47.66
2006-07-18,44.06
2006-07-19,47.3
2006-07-20,51.44
2006-07-21,57.02
2006-07-22,60.8
2006-07-23,60.8
2006-07-24,57.02
2006-07-25,54.68
2006-07-26,52.7
2006-07-27,57.2
2006-07-28,51.62
2006-07-29,47.12
2006-07-30,42.26
2006-07-31,36.5
2006-08-01,37.76
2006-08-02,39.56
2006-08-03,45.32
2006-08-04,48.2
2006-08-05,49.28
2006-08-06,49.46
2006-08-07,47.12
2006-08-08,46.22
2006-08-09,42.62
2006-08-10,46.58
2006-08-11,41.54
2006-08-12,39.38
2006-08-13,48.38
2006-08-14,47.12
2006-08-15,44.96
2006-08-16,39.92
2006-08-17,35.42
2006-08-18,44.96
2006-08-19,48.2
2006-08-20,52.7
2006-08-21,50.72
2006-08-22,47.48
2006-08-23,44.6
2006-08-24,42.62
2006-08-25,41.0
2006-08-26,45.14
2006-08-27,47.84
2006-08-28,52.16
2006-08-29,45.5
2006-08-30,40.28
2006-08-31,34.16
2006-09-01,40.82
2006-09-02,49.46
2006-09-03,48.02
2006-09-04,49.28
2006-09-05,50.54
2006-09-06,51.98
2006-09-07,47.66
2006-09-08,48.38
2006-09-09,41.54
2006-09-10,40.1
2006-09-11,48.02
2006-09-12,49.28
2006-09-13,47.66
2006-09-14,30.2
2006-09-15,32.54
2006-09-16,33.44
2006-09-17,33.08
2006-09-18,42.26
2006-09-19,30.56
2006-09-20,30.02
2006-09-21,32.54
2006-09-22,28.58
2006-09-23,37.04
2006-09-24,34.52
2006-09-25,38.3
2006-09-26,41.9
2006-09-27,48.56
2006-09-28,48.2
2006-09-29,48.02
2006-09-30,46.04
2006-10-01,41.36
2006-10-02,36.68
2006-10-03,37.94
2006-10-04,33.44
2006-10-05,38.3
2006-10-06,31.82
2006-10-07,28.76
2006-10-08,34.34
2006-10-09,34.16
2006-10-10,31.1
2006-10-11,31.1
2006-10-12,39.02
2006-10-13,42.26
2006-10-14,40.64
2006-10-15,35.96
2006-10-16,30.02
2006-10-17,27.68
2006-10-18,29.3
2006-10-19,
2006-10-20,31.28
2006-10-21,27.32
2006-10-22,29.48
2006-10-23,33.98
2006-10-24,26.06
2006-10-25,18.86
2006-10-26,27.86
2006-10-27,32.9
2006-10-28,36.5
2006-10-29,26.42
2006-10-30,16.88
2006-10-31,12.74
2006-11-01,21.02
2006-11-02,32.72
2006-11-03,38.84
2006-11-04,38.66
2006-11-05,42.98
2006-11-06,46.22
2006-11-07,39.02
2006-11-08,28.76
2006-11-09,21.74
2006-11-10,24.44
2006-11-11,21.74
2006-11-12,20.66
2006-11-13,29.66
2006-11-14,21.02
2006-11-15,27.86
2006-11-16,28.58
2006-11-17,28.22
2006-11-18,26.6
2006-11-19,37.94
2006-11-20,35.42
2006-11-21,29.12
2006-11-22,25.34
2006-11-23,22.82
2006-11-24,27.5
2006-11-25,22.46
2006-11-26,22.28
2006-11-27,17.42
2006-11-28,7.34
2006-11-29,6.26
2006-11-30,17.06
2006-12-01,13.64
2006-12-02,12.38
2006-12-03,16.52
2006-12-04,20.84
2006-12-05,26.78
2006-12-06,28.94
2006-12-07,28.04
2006-12-08,31.82
2006-12-09,32.0
2006-12-10,27.14
2006-12-11,28.76
2006-12-12,32.18
2006-12-13,32.18
2006-12-14,29.48
2006-12-15,9.86
2006-12-16,8.42
2006-12-17,6.62
2006-12-18,11.12
2006-12-19,16.52
2006-12-20,18.14
2006-12-21,24.26
2006-12-22,14.0
2006-12-23,26.42
2006-12-24,28.58
2006-12-25,32.72
2006-12-26,29.84
2006-12-27,10.76
2006-12-28,6.44
2006-12-29,11.3
2006-12-30,20.84
2006-12-31,24.26
2007-01-01,21.92
2007-01-02,28.04
2007-01-03,27.14
2007-01-04,12.38
2007-01-05,7.16
2007-01-06,26.24
2007-01-07,27.32
2007-01-08,27.14
2007-01-09,27.86
2007-01-10,10.58
2007-01-11,3.56
2007-01-12,-7.42
2007-01-13,5.54
2007-01-14,7.7
2007-01-15,6.26
2007-01-16,18.86
2007-01-17,11.48
2007-01-18,17.96
2007-01-19,24.98
2007-01-20,12.74
2007-01-21,12.02
2007-01-22,17.78
2007-01-23,23.9
2007-01-24,26.42
2007-01-25,27.5
2007-01-26,23.0
2007-01-27,20.12
2007-01-28,12.56
2007-01-29,17.78
2007-01-30,24.08
2007-01-31,16.7
2007-02-01,14.18
2007-02-02,11.3
2007-02-03,26.24
2007-02-04,31.46
2007-02-05,36.68
2007-02-06,34.7
2007-02-07,30.38
2007-02-08,28.76
2007-02-09,30.92
2007-02-10,32.54
2007-02-11,26.78
2007-02-12,25.34
2007-02-13,23.9
2007-02-14,20.66
2007-02-15,33.26
2007-02-16,30.02
2007-02-17,28.58
2007-02-18,18.86
2007-02-19,18.14
2007-02-20,24.62
2007-02-21,24.44
2007-02-22,19.22
2007-02-23,15.44
2007-02-24,22.82
2007-02-25,20.84
2007-02-26,18.14
2007-02-27,16.34
2007-02-28,18.32
2007-03-01,20.66
2007-03-02,26.78
2007-03-03,26.42
2007-03-04,28.76
2007-03-05,29.66
2007-03-06,27.14
2007-03-07,24.8
2007-03-08,19.22
2007-03-09,30.92
2007-03-10,30.92
2007-03-11,36.68
2007-03-12,39.2
2007-03-13,33.44
2007-03-14,28.76
2007-03-15,26.6
2007-03-16,33.8
2007-03-17,36.32
2007-03-18,32.36
2007-03-19,32.36
2007-03-20,21.56
2007-03-21,16.16
2007-03-22,28.4
2007-03-23,30.74
2007-03-24,35.96
2007-03-25,28.22
2007-03-26,22.1
2007-03-27,20.66
2007-03-28,14.54
2007-03-29,25.88
2007-03-30,31.82
2007-03-31,30.38
2007-04-01,28.94
2007-04-02,18.86
2007-04-03,29.48
2007-04-04,32.72
2007-04-05,30.02
2007-04-06,33.8
2007-04-07,31.64
2007-04-08,25.7
2007-04-09,26.06
2007-04-10,23.54
2007-04-11,21.74
2007-04-12,21.02
2007-04-13,23.54
2007-04-14,25.34
2007-04-15,18.5
2007-04-16,26.42
2007-04-17,23.9
2007-04-18,21.2
2007-04-19,18.14
2007-04-20,19.04
2007-04-21,30.38
2007-04-22,26.6
2007-04-23,23.72
2007-04-24,35.42
2007-04-25,29.66
2007-04-26,26.42
2007-04-27,32.9
2007-04-28,37.4
2007-04-29,40.82
2007-04-30,34.7
2007-05-01,33.62
2007-05-02,26.78
2007-05-03,25.16
2007-05-04,24.98
2007-05-05,21.02
2007-05-06,29.66
2007-05-07,37.58
2007-05-08,40.46
2007-05-09,37.94
2007-05-10,40.82
2007-05-11,37.04
2007-05-12,28.76
2007-05-13,23.54
2007-05-14,31.64
2007-05-15,36.32
2007-05-16,41.54
2007-05-17,39.02
2007-05-18,38.66
2007-05-19,37.4
2007-05-20,34.34
2007-05-21,27.5
2007-05-22,24.26
2007-05-23,30.92
2007-05-24,42.62
2007-05-25,41.0
2007-05-26,41.72
2007-05-27,30.38
2007-05-28,26.24
2007-05-29,35.06
2007-05-30,41.72
2007-05-31,48.56
2007-06-01,49.28
2007-06-02,48.02
2007-06-03,50.0
2007-06-04,45.86
2007-06-05,30.74
2007-06-06,28.22
2007-06-07,27.5
2007-06-08,32.72
2007-06-09,43.52
2007-06-10,37.94
2007-06-11,29.66
2007-06-12,34.52
2007-06-13,45.32
2007-06-14,41.54
2007-06-15,43.7
2007-06-16,33.26
2007-06-17,28.04
2007-06-18,37.22
2007-06-19,43.16
2007-06-20,48.2
2007-06-21,44.42
2007-06-22,38.48
2007-06-23,29.48
2007-06-24,31.1
2007-06-25,26.6
2007-06-26,38.66
2007-06-27,44.6
2007-06-28,43.34
2007-06-29,40.46
2007-06-30,35.96
2007-07-01,43.52
2007-07-02,47.12
2007-07-03,45.14
2007-07-04,52.88
2007-07-05,59.0
2007-07-06,55.76
2007-07-07,50.9
2007-07-08,44.96
2007-07-09,51.98
2007-07-10,54.14
2007-07-11,57.56
2007-07-12,52.52
2007-07-13,50.36
2007-07-14,50.72
2007-07-15,50.0
2007-07-16,49.1
2007-07-17,51.08
2007-07-18,45.86
2007-07-19,40.82
2007-07-20,42.98
2007-07-21,49.28
2007-07-22,51.26
2007-07-23,52.52
2007-07-24,49.28
2007-07-25,49.64
2007-07-26,51.62
2007-07-27,52.34
2007-07-28,50.36
2007-07-29,47.12
2007-07-30,45.86
2007-07-31,53.96
2007-08-01,60.44
2007-08-02,50.9
2007-08-03,45.86
2007-08-04,44.24
2007-08-05,42.62
2007-08-06,41.36
2007-08-07,39.38
2007-08-08,42.62
2007-08-09,44.6
2007-08-10,38.48
2007-08-11,44.24
2007-08-12,44.78
2007-08-13,41.72
2007-08-14,44.6
2007-08-15,48.38
2007-08-16,46.58
2007-08-17,37.22
2007-08-18,38.3
2007-08-19,44.06
2007-08-20,44.78
2007-08-21,46.76
2007-08-22,41.0
2007-08-23,46.4
2007-08-24,44.78
2007-08-25,48.02
2007-08-26,43.16
2007-08-27,35.96
2007-08-28,42.62
2007-08-29,46.94
2007-08-30,53.96
2007-08-31,49.46
2007-09-01,44.78
2007-09-02,47.66
2007-09-03,48.02
2007-09-04,38.84
2007-09-05,36.86
2007-09-06,42.8
2007-09-07,45.5
2007-09-08,45.14
2007-09-09,40.82
2007-09-10,40.1
2007-09-11,46.76
2007-09-12,50.72
2007-09-13,43.7
2007-09-14,38.12
2007-09-15,35.42
2007-09-16,43.34
2007-09-17,36.32
2007-09-18,30.02
2007-09-19,26.78
2007-09-20,37.76
2007-09-21,35.96
2007-09-22,37.58
2007-09-23,25.34
2007-09-24,24.98
2007-09-25,33.08
2007-09-26,37.04
2007-09-27,40.46
2007-09-28,28.94
2007-09-29,
2007-09-30,34.88
2007-10-01,31.1
2007-10-02,31.28
2007-10-03,30.92
2007-10-04,27.86
2007-10-05,24.98
2007-10-06,23.9
2007-10-07,32.9
2007-10-08,36.32
2007-10-09,41.0
2007-10-10,28.76
2007-10-11,29.12
2007-10-12,31.82
2007-10-13,31.1
2007-10-14,35.24
2007-10-15,35.78
2007-10-16,30.38
2007-10-17,28.76
2007-10-18,30.38
2007-10-19,30.2
2007-10-20,26.42
2007-10-21,22.64
2007-10-22,30.74
2007-10-23,40.1
2007-10-24,37.58
2007-10-25,28.58
2007-10-26,28.4
2007-10-27,30.38
2007-10-28,35.24
2007-10-29,36.14
2007-10-30,29.84
2007-10-31,27.5
2007-11-01,28.76
2007-11-02,25.88
2007-11-03,29.66
2007-11-04,34.34
2007-11-05,33.26
2007-11-06,35.6
2007-11-07,35.24
2007-11-08,35.42
2007-11-09,36.14
2007-11-10,34.34
2007-11-11,26.06
2007-11-12,32.0
2007-11-13,26.78
2007-11-14,24.98
2007-11-15,35.06
2007-11-16,35.42
2007-11-17,39.92
2007-11-18,35.96
2007-11-19,21.56
2007-11-20,15.8
2007-11-21,13.1
2007-11-22,15.98
2007-11-23,15.62
2007-11-24,26.06
2007-11-25,26.24
2007-11-26,23.9
2007-11-27,16.7
2007-11-28,15.8
2007-11-29,16.16
2007-11-30,11.66
2007-12-01,11.84
2007-12-02,24.08
2007-12-03,33.44
2007-12-04,31.46
2007-12-05,29.48
2007-12-06,26.96
2007-12-07,19.58
2007-12-08,10.04
2007-12-09,10.58
2007-12-10,14.18
2007-12-11,10.94
2007-12-12,19.22
2007-12-13,14.72
2007-12-14,18.68
2007-12-15,16.34
2007-12-16,22.82
2007-12-17,26.42
2007-12-18,28.94
2007-12-19,26.78
2007-12-20,17.42
2007-12-21,9.14
2007-12-22,14.9
2007-12-23,28.94
2007-12-24,8.78
2007-12-25,8.42
2007-12-26,12.02
2007-12-27,12.74
2007-12-28,23.9
2007-12-29,24.98
2007-12-30,12.56
2007-12-31,4.82
2008-01-01,15.62
2008-01-02,21.74
2008-01-03,27.32
2008-01-04,26.06
2008-01-05,21.02
2008-01-06,19.4
2008-01-07,17.24
2008-01-08,21.02
2008-01-09,21.38
2008-01-10,26.96
2008-01-11,27.68
2008-01-12,23.9
2008-01-13,23.54
2008-01-14,22.46
2008-01-15,9.32
2008-01-16,9.5
2008-01-17,14.54
2008-01-18,21.74
2008-01-19,22.1
2008-01-20,14.54
2008-01-21,8.06
2008-01-22,2.48
2008-01-23,-0.04
2008-01-24,3.38
2008-01-25,12.38
2008-01-26,25.7
2008-01-27,15.08
2008-01-28,13.64
2008-01-29,17.24
2008-01-30,16.88
2008-01-31,21.56
2008-02-01,18.86
2008-02-02,19.04
2008-02-03,18.68
2008-02-04,14.72
2008-02-05,14.18
2008-02-06,18.86
2008-02-07,23.72
2008-02-08,21.2
2008-02-09,25.7
2008-02-10,27.32
2008-02-11,24.98
2008-02-12,27.86
2008-02-13,15.26
2008-02-14,14.36
2008-02-15,23.36
2008-02-16,25.52
2008-02-17,21.74
2008-02-18,21.02
2008-02-19,25.7
2008-02-20,26.78
2008-02-21,26.42
2008-02-22,16.34
2008-02-23,16.34
2008-02-24,27.86
2008-02-25,24.62
2008-02-26,23.54
2008-02-27,27.86
2008-02-28,25.88
2008-02-29,30.2
2008-03-01,14.0
2008-03-02,11.48
2008-03-03,24.08
2008-03-04,18.86
2008-03-05,12.74
2008-03-06,21.74
2008-03-07,25.34
2008-03-08,26.06
2008-03-09,26.24
2008-03-10,31.1
2008-03-11,30.02
2008-03-12,27.68
2008-03-13,26.06
2008-03-14,23.9
2008-03-15,17.78
2008-03-16,13.46
2008-03-17,26.06
2008-03-18,33.62
2008-03-19,24.44
2008-03-20,23.18
2008-03-21,19.76
2008-03-22,18.5
2008-03-23,31.46
2008-03-24,29.66
2008-03-25,26.78
2008-03-26,18.14
2008-03-27,11.66
2008-03-28,14.9
2008-03-29,6.62
2008-03-30,8.24
2008-03-31,4.1
2008-04-01,8.42
2008-04-02,22.1
2008-04-03,23.54
2008-04-04,23.54
2008-04-05,22.1
2008-04-06,23.9
2008-04-07,18.5
2008-04-08,23.36
2008-04-09,25.16
2008-04-10,21.38
2008-04-11,25.7
2008-04-12,33.08
2008-04-13,37.04
2008-04-14,19.04
2008-04-15,17.96
2008-04-16,19.4
2008-04-17,27.86
2008-04-18,24.62
2008-04-19,16.34
2008-04-20,14.9
2008-04-21,17.42
2008-04-22,27.14
2008-04-23,23.9
2008-04-24,24.26
2008-04-25,24.98
2008-04-26,28.58
2008-04-27,34.34
2008-04-28,32.9
2008-04-29,20.84
2008-04-30,20.84
2008-05-01,16.34
2008-05-02,31.64
2008-05-03,31.1
2008-05-04,32.18
2008-05-05,35.24
2008-05-06,33.44
2008-05-07,28.4
2008-05-08,27.86
2008-05-09,24.98
2008-05-10,31.82
2008-05-11,25.34
2008-05-12,22.1
2008-05-13,34.7
2008-05-14,35.42
2008-05-15,41.0
2008-05-16,43.34
2008-05-17,48.02
2008-05-18,48.02
2008-05-19,41.9
2008-05-20,29.48
2008-05-21,28.76
2008-05-22,28.4
2008-05-23,31.1
2008-05-24,35.6
2008-05-25,33.98
2008-05-26,37.94
2008-05-27,35.42
2008-05-28,37.58
2008-05-29,37.58
2008-05-30,33.8
2008-05-31,38.12
2008-06-01,33.98
2008-06-02,29.66
2008-06-03,31.82
2008-06-04,30.02
2008-06-05,30.38
2008-06-06,28.76
2008-06-07,26.24
2008-06-08,27.86
2008-06-09,34.16
2008-06-10,26.78
2008-06-11,24.8
2008-06-12,27.14
2008-06-13,41.36
2008-06-14,37.76
2008-06-15,37.04
2008-06-16,40.82
2008-06-17,37.94
2008-06-18,34.52
2008-06-19,37.94
2008-06-20,43.34
2008-06-21,43.16
2008-06-22,34.88
2008-06-23,38.3
2008-06-24,34.7
2008-06-25,42.62
2008-06-26,39.92
2008-06-27,51.8
2008-06-28,53.06
2008-06-29,51.08
2008-06-30,51.26
2008-07-01,50.18
2008-07-02,51.26
2008-07-03,51.08
2008-07-04,50.72
2008-07-05,46.58
2008-07-06,47.48
2008-07-07,47.84
2008-07-08,49.46
2008-07-09,53.42
2008-07-10,46.76
2008-07-11,47.66
2008-07-12,46.76
2008-07-13,59.0
2008-07-14,57.92
2008-07-15,52.34
2008-07-16,49.28
2008-07-17,45.32
2008-07-18,38.48
2008-07-19,39.92
2008-07-20,47.84
2008-07-21,53.06
2008-07-22,46.04
2008-07-23,37.58
2008-07-24,43.34
2008-07-25,46.4
2008-07-26,41.9
2008-07-27,46.76
2008-07-28,42.26
2008-07-29,47.48
2008-07-30,42.26
2008-07-31,45.68
2008-08-01,46.04
2008-08-02,45.32
2008-08-03,42.26
2008-08-04,45.14
2008-08-05,48.02
2008-08-06,52.88
2008-08-07,52.52
2008-08-08,48.02
2008-08-09,42.8
2008-08-10,40.28
2008-08-11,40.82
2008-08-12,50.36
2008-08-13,43.7
2008-08-14,55.04
2008-08-15,57.38
2008-08-16,59.0
2008-08-17,59.9
2008-08-18,50.0
2008-08-19,41.36
2008-08-20,50.54
2008-08-21,41.72
2008-08-22,34.7
2008-08-23,44.42
2008-08-24,50.36
2008-08-25,33.26
2008-08-26,31.1
2008-08-27,44.78
2008-08-28,45.32
2008-08-29,48.74
2008-08-30,28.58
2008-08-31,26.42
2008-09-01,26.06
2008-09-02,32.72
2008-09-03,37.58
2008-09-04,42.62
2008-09-05,45.32
2008-09-06,45.32
2008-09-07,50.18
2008-09-08,44.24
2008-09-09,43.88
2008-09-10,39.02
2008-09-11,39.56
2008-09-12,46.4
2008-09-13,40.1
2008-09-14,42.62
2008-09-15,50.36
2008-09-16,49.46
2008-09-17,51.08
2008-09-18,42.8
2008-09-19,41.18
2008-09-20,39.02
2008-09-21,33.8
2008-09-22,29.3
2008-09-23,28.22
2008-09-24,42.62
2008-09-25,35.96
2008-09-26,33.8
2008-09-27,42.26
2008-09-28,40.64
2008-09-29,47.12
2008-09-30,51.26
2008-10-01,47.66
2008-10-02,42.26
2008-10-03,42.26
2008-10-04,37.94
2008-10-05,36.68
2008-10-06,37.22
2008-10-07,31.46
2008-10-08,29.66
2008-10-09,24.62
2008-10-10,19.76
2008-10-11,25.34
2008-10-12,21.38
2008-10-13,31.82
2008-10-14,30.74
2008-10-15,27.5
2008-10-16,38.12
2008-10-17,40.82
2008-10-18,39.2
2008-10-19,36.14
2008-10-20,31.1
2008-10-21,23.36
2008-10-22,25.88
2008-10-23,33.98
2008-10-24,32.0
2008-10-25,39.02
2008-10-26,35.06
2008-10-27,36.86
2008-10-28,39.38
2008-10-29,35.42
2008-10-30,44.24
2008-10-31,39.56
2008-11-01,36.68
2008-11-02,30.92
2008-11-03,29.3
2008-11-04,24.8
2008-11-05,24.8
2008-11-06,31.82
2008-11-07,35.24
2008-11-08,31.28
2008-11-09,26.42
2008-11-10,30.56
2008-11-11,32.36
2008-11-12,42.44
2008-11-13,29.84
2008-11-14,29.12
2008-11-15,34.34
2008-11-16,35.78
2008-11-17,37.94
2008-11-18,38.66
2008-11-19,31.28
2008-11-20,24.26
2008-11-21,21.02
2008-11-22,22.64
2008-11-23,20.84
2008-11-24,27.5
2008-11-25,32.9
2008-11-26,28.4
2008-11-27,26.78
2008-11-28,28.58
2008-11-29,31.1
2008-11-30,34.7
2008-12-01,33.8
2008-12-02,27.5
2008-12-03,25.16
2008-12-04,21.38
2008-12-05,22.82
2008-12-06,29.48
2008-12-07,30.2
2008-12-08,21.56
2008-12-09,20.3
2008-12-10,24.44
2008-12-11,29.66
2008-12-12,18.86
2008-12-13,17.96
2008-12-14,17.6
2008-12-15,-1.48
2008-12-16,-4.54
2008-12-17,3.2
2008-12-18,16.34
2008-12-19,15.26
2008-12-20,18.5
2008-12-21,19.76
2008-12-22,17.78
2008-12-23,16.88
2008-12-24,17.24
2008-12-25,12.56
2008-12-26,13.1
2008-12-27,21.56
2008-12-28,30.74
2008-12-29,24.98
2008-12-30,17.42
2008-12-31,26.78
2009-01-01,30.02
2009-01-02,15.8
2009-01-03,5.72
2009-01-04,4.46
2009-01-05,21.56
2009-01-06,30.56
2009-01-07,31.46
2009-01-08,19.4
2009-01-09,12.56
2009-01-10,18.86
2009-01-11,28.76
2009-01-12,30.92
2009-01-13,27.32
2009-01-14,28.76
2009-01-15,28.76
2009-01-16,28.4
2009-01-17,25.7
2009-01-18,18.68
2009-01-19,17.6
2009-01-20,21.56
2009-01-21,26.6
2009-01-22,31.46
2009-01-23,32.9
2009-01-24,25.7
2009-01-25,20.12
2009-01-26,8.06
2009-01-27,10.58
2009-01-28,20.84
2009-01-29,19.04
2009-01-30,25.7
2009-01-31,21.74
2009-02-01,18.14
2009-02-02,26.06
2009-02-03,29.3
2009-02-04,30.02
2009-02-05,30.38
2009-02-06,30.02
2009-02-07,21.2
2009-02-08,19.58
2009-02-09,12.02
2009-02-10,15.8
2009-02-11,17.06
2009-02-12,10.22
2009-02-13,19.76
2009-02-14,21.38
2009-02-15,24.62
2009-02-16,28.04
2009-02-17,21.02
2009-02-18,23.9
2009-02-19,22.1
2009-02-20,21.56
2009-02-21,23.54
2009-02-22,32.18
2009-02-23,31.28
2009-02-24,30.2
2009-02-25,29.3
2009-02-26,14.72
2009-02-27,12.38
2009-02-28,21.56
2009-03-01,36.14
2009-03-02,29.84
2009-03-03,24.98
2009-03-04,17.96
2009-03-05,20.48
2009-03-06,16.34
2009-03-07,14.0
2009-03-08,8.96
2009-03-09,6.08
2009-03-10,16.34
2009-03-11,12.92
2009-03-12,15.08
2009-03-13,22.1
2009-03-14,27.86
2009-03-15,29.48
2009-03-16,27.68
2009-03-17,27.14
2009-03-18,25.88
2009-03-19,30.02
2009-03-20,29.84
2009-03-21,27.14
2009-03-22,16.7
2009-03-23,8.96
2009-03-24,26.06
2009-03-25,27.14
2009-03-26,25.88
2009-03-27,26.06
2009-03-28,23.72
2009-03-29,15.26
2009-03-30,12.38
2009-03-31,25.16
2009-04-01,22.1
2009-04-02,22.64
2009-04-03,13.1
2009-04-04,9.5
2009-04-05,22.82
2009-04-06,26.06
2009-04-07,33.62
2009-04-08,32.36
2009-04-09,28.22
2009-04-10,27.14
2009-04-11,25.52
2009-04-12,30.74
2009-04-13,18.5
2009-04-14,12.2
2009-04-15,21.38
2009-04-16,18.68
2009-04-17,30.02
2009-04-18,26.06
2009-04-19,34.34
2009-04-20,39.56
2009-04-21,41.36
2009-04-22,39.38
2009-04-23,26.6
2009-04-24,23.0
2009-04-25,23.9
2009-04-26,17.78
2009-04-27,26.96
2009-04-28,24.98
2009-04-29,21.92
2009-04-30,21.56
2009-05-01,32.18
2009-05-02,32.18
2009-05-03,29.84
2009-05-04,30.2
2009-05-05,35.78
2009-05-06,33.98
2009-05-07,27.14
2009-05-08,23.54
2009-05-09,28.22
2009-05-10,32.18
2009-05-11,34.7
2009-05-12,25.88
2009-05-13,23.36
2009-05-14,35.42
2009-05-15,32.54
2009-05-16,36.14
2009-05-17,44.06
2009-05-18,46.22
2009-05-19,28.04
2009-05-20,26.96
2009-05-21,33.08
2009-05-22,34.88
2009-05-23,38.12
2009-05-24,38.3
2009-05-25,33.62
2009-05-26,33.98
2009-05-27,37.94
2009-05-28,42.8
2009-05-29,45.32
2009-05-30,49.46
2009-05-31,50.0
2009-06-01,47.84
2009-06-02,43.7
2009-06-03,40.28
2009-06-04,38.12
2009-06-05,37.04
2009-06-06,40.64
2009-06-07,39.74
2009-06-08,31.28
2009-06-09,40.64
2009-06-10,40.1
2009-06-11,42.44
2009-06-12,41.0
2009-06-13,38.66
2009-06-14,41.0
2009-06-15,42.8
2009-06-16,40.46
2009-06-17,41.72
2009-06-18,36.86
2009-06-19,37.22
2009-06-20,33.26
2009-06-21,31.28
2009-06-22,27.14
2009-06-23,37.94
2009-06-24,44.6
2009-06-25,39.92
2009-06-26,36.86
2009-06-27,42.44
2009-06-28,46.58
2009-06-29,41.9
2009-06-30,42.26
2009-07-01,45.86
2009-07-02,48.38
2009-07-03,49.28
2009-07-04,50.9
2009-07-05,49.46
2009-07-06,37.58
2009-07-07,38.3
2009-07-08,35.24
2009-07-09,37.58
2009-07-10,48.56
2009-07-11,45.5
2009-07-12,44.24
2009-07-13,40.82
2009-07-14,38.66
2009-07-15,47.3
2009-07-16,50.72
2009-07-17,48.2
2009-07-18,50.72
2009-07-19,44.6
2009-07-20,49.46
2009-07-21,53.42
2009-07-22,52.7
2009-07-23,55.22
2009-07-24,53.96
2009-07-25,52.88
2009-07-26,53.06
2009-07-27,57.74
2009-07-28,60.98
2009-07-29,58.1
2009-07-30,55.04
2009-07-31,54.32
2009-08-01,59.72
2009-08-02,51.44
2009-08-03,48.2
2009-08-04,50.36
2009-08-05,46.22
2009-08-06,42.26
2009-08-07,37.58
2009-08-08,33.26
2009-08-09,41.54
2009-08-10,42.62
2009-08-11,50.54
2009-08-12,47.66
2009-08-13,42.44
2009-08-14,33.26
2009-08-15,34.34
2009-08-16,38.66
2009-08-17,45.32
2009-08-18,47.84
2009-08-19,55.94
2009-08-20,57.2
2009-08-21,48.2
2009-08-22,44.06
2009-08-23,41.36
2009-08-24,41.54
2009-08-25,46.58
2009-08-26,46.94
2009-08-27,47.84
2009-08-28,52.52
2009-08-29,44.42
2009-08-30,41.18
2009-08-31,45.14
2009-09-01,47.84
2009-09-02,47.66
2009-09-03,47.48
2009-09-04,41.18
2009-09-05,42.44
2009-09-06,38.3
2009-09-07,28.58
2009-09-08,31.1
2009-09-09,45.5
2009-09-10,43.7
2009-09-11,47.84
2009-09-12,51.08
2009-09-13,47.84
2009-09-14,41.18
2009-09-15,37.94
2009-09-16,49.1
2009-09-17,42.98
2009-09-18,42.26
2009-09-19,37.58
2009-09-20,34.16
2009-09-21,41.0
2009-09-22,41.54
2009-09-23,48.74
2009-09-24,51.62
2009-09-25,50.36
2009-09-26,49.46
2009-09-27,44.06
2009-09-28,38.3
2009-09-29,
2009-09-30,27.5
2009-10-01,25.7
2009-10-02,26.42
2009-10-03,23.54
2009-10-04,24.8
2009-10-05,29.12
2009-10-06,24.08
2009-10-07,33.44
2009-10-08,31.64
2009-10-09,32.18
2009-10-10,27.86
2009-10-11,28.4
2009-10-12,33.8
2009-10-13,37.22
2009-10-14,40.46
2009-10-15,41.18
2009-10-16,39.02
2009-10-17,44.6
2009-10-18,37.04
2009-10-19,31.28
2009-10-20,30.56
2009-10-21,35.06
2009-10-22,30.92
2009-10-23,38.48
2009-10-24,32.72
2009-10-25,28.04
2009-10-26,26.78
2009-10-27,24.08
2009-10-28,17.78
2009-10-29,27.5
2009-10-30,37.4
2009-10-31,37.58
2009-11-01,28.58
2009-11-02,28.4
2009-11-03,28.94
2009-11-04,34.88
2009-11-05,38.12
2009-11-06,31.28
2009-11-07,29.66
2009-11-08,28.04
2009-11-09,26.96
2009-11-10,31.46
2009-11-11,22.46
2009-11-12,14.54
2009-11-13,14.0
2009-11-14,14.0
2009-11-15,20.84
2009-11-16,27.14
2009-11-17,25.52
2009-11-18,23.72
2009-11-19,22.1
2009-11-20,23.36
2009-11-21,20.66
2009-11-22,24.8
2009-11-23,19.4
2009-11-24,26.06
2009-11-25,29.48
2009-11-26,33.44
2009-11-27,19.04
2009-11-28,17.24
2009-11-29,21.74
2009-11-30,26.78
2009-12-01,24.8
2009-12-02,19.58
2009-12-03,14.72
2009-12-04,21.02
2009-12-05,6.44
2009-12-06,7.52
2009-12-07,-5.62
2009-12-08,-7.6
2009-12-09,-2.56
2009-12-10,6.08
2009-12-11,14.36
2009-12-12,25.7
2009-12-13,19.94
2009-12-14,17.42
2009-12-15,29.48
2009-12-16,30.38
2009-12-17,30.74
2009-12-18,32.0
2009-12-19,32.36
2009-12-20,32.72
2009-12-21,20.3
2009-12-22,12.38
2009-12-23,11.48
2009-12-24,20.84
2009-12-25,21.38
2009-12-26,18.5
2009-12-27,25.88
2009-12-28,17.06
2009-12-29,16.16
2009-12-30,22.28
2009-12-31,22.82
2010-01-01,29.66
2010-01-02,24.98
2010-01-03,23.54
2010-01-04,27.32
2010-01-05,33.26
2010-01-06,33.26
2010-01-07,31.46
2010-01-08,33.62
2010-01-09,31.46
2010-01-10,30.56
2010-01-11,34.34
2010-01-12,32.54
2010-01-13,29.66
2010-01-14,27.5
2010-01-15,31.46
2010-01-16,32.0
2010-01-17,30.74
2010-01-18,29.48
2010-01-19,27.86
2010-01-20,26.06
2010-01-21,26.6
2010-01-22,18.14
2010-01-23,19.4
2010-01-24,24.8
2010-01-25,27.14
2010-01-26,26.78
2010-01-27,23.9
2010-01-28,23.54
2010-01-29,29.3
2010-01-30,27.68
2010-01-31,20.12
2010-02-01,24.08
2010-02-02,27.5
2010-02-03,28.94
2010-02-04,28.22
2010-02-05,28.94
2010-02-06,27.68
2010-02-07,23.36
2010-02-08,24.26
2010-02-09,24.26
2010-02-10,20.84
2010-02-11,30.2
2010-02-12,29.3
2010-02-13,32.72
2010-02-14,33.26
2010-02-15,31.82
2010-02-16,29.66
2010-02-17,26.42
2010-02-18,24.08
2010-02-19,16.34
2010-02-20,15.08
2010-02-21,14.18
2010-02-22,10.94
2010-02-23,23.72
2010-02-24,29.12
2010-02-25,28.04
2010-02-26,30.38
2010-02-27,25.34
2010-02-28,23.9
2010-03-01,29.12
2010-03-02,31.28
2010-03-03,25.34
2010-03-04,21.2
2010-03-05,21.92
2010-03-06,29.3
2010-03-07,26.06
2010-03-08,13.1
2010-03-09,7.52
2010-03-10,16.7
2010-03-11,21.2
2010-03-12,19.76
2010-03-13,14.36
2010-03-14,17.96
2010-03-15,27.86
2010-03-16,32.54
2010-03-17,26.6
2010-03-18,23.18
2010-03-19,24.8
2010-03-20,31.46
2010-03-21,29.66
2010-03-22,23.0
2010-03-23,19.22
2010-03-24,30.74
2010-03-25,24.8
2010-03-26,21.38
2010-03-27,21.02
2010-03-28,35.42
2010-03-29,26.42
2010-03-30,21.92
2010-03-31,15.44
2010-04-01,15.08
2010-04-02,21.02
2010-04-03,19.76
2010-04-04,20.66
2010-04-05,18.14
2010-04-06,24.98
2010-04-07,24.08
2010-04-08,15.98
2010-04-09,12.02
2010-04-10,24.62
2010-04-11,29.84
2010-04-12,26.78
2010-04-13,25.88
2010-04-14,29.3
2010-04-15,29.66
2010-04-16,34.16
2010-04-17,33.44
2010-04-18,28.76
2010-04-19,35.42
2010-04-20,29.66
2010-04-21,25.34
2010-04-22,21.2
2010-04-23,27.5
2010-04-24,31.64
2010-04-25,28.22
2010-04-26,36.14
2010-04-27,26.06
2010-04-28,25.34
2010-04-29,20.66
2010-04-30,18.32
2010-05-01,27.86
2010-05-02,25.34
2010-05-03,23.54
2010-05-04,17.6
2010-05-05,19.58
2010-05-06,15.8
2010-05-07,26.96
2010-05-08,30.74
2010-05-09,32.9
2010-05-10,28.04
2010-05-11,25.7
2010-05-12,26.42
2010-05-13,35.96
2010-05-14,35.06
2010-05-15,38.48
2010-05-16,40.28
2010-05-17,38.3
2010-05-18,33.26
2010-05-19,28.94
2010-05-20,27.14
2010-05-21,23.9
2010-05-22,23.36
2010-05-23,22.1
2010-05-24,28.94
2010-05-25,33.98
2010-05-26,32.0
2010-05-27,29.66